Location: Wagman Observatory
(40.6260°N, 79.8130°W)
Time: 13:03:56
(UTC-04:00)

Daily predictions for brighter satellites

Satellite Brightness Start Highest point End
(mag) Time Altitude Azimuth Time Altitude Azimuth Time Altitude Azimuth
Aureole 2 Rocket 3.0 19:24:42 10° SSW 19:29:04 76° ESE 19:33:21 10° NNE
ATLAS CENTAUR R/B 3.4 19:27:18 10° SSW 19:31:46 62° ESE 19:45:24 10° NE
Cosmos 2333 Rocket 3.9 19:29:46 10° SW 19:35:06 38° WNW 19:40:28 10° N
SAR-Lupe-1 4.2 19:32:38 10° SSE 19:36:04 49° ENE 19:39:32 10° N
Okean 3 Rocket 3.7 19:31:47 10° N 19:36:22 86° E 19:40:54 10° S
SJ-6B 3.0 19:33:42 10° SSE 19:37:34 51° ENE 19:41:31 10° N
Meteor 1-29 4.4 19:38:09 10° NE 19:40:42 19° E 19:43:14 10° SE
Helios 1A 4.0 19:37:19 10° SE 19:40:54 27° ENE 19:44:29 10° N
FREGAT/IRIS 3.2 19:38:08 10° SE 19:41:01 37° ENE 19:43:54 10° N
Resurs 01 Rocket 2.3 19:38:38 10° SE 19:42:38 33° ENE 19:46:38 10° N
NOSS 3-2 (A) 3.6 19:39:40 10° SW 19:45:43 88° NW 19:52:21 10° NE
Cosmos 1758 3.8 19:46:10 10° SSE 19:49:58 40° E 19:53:50 10° NNE
Cosmos 1452 Rocket 3.6 19:45:42 10° N 19:50:53 55° ENE 19:56:01 10° SE
Cosmos 1484 Rocket 3.7 19:48:36 10° S 19:52:20 52° W 19:56:10 10° NNW
ATLAS 5 CENTAUR R/B 1.8 19:50:41 10° SSW 19:55:25 78° ESE 20:00:35 10° NE
Timation 1 Rocket 4.4 19:49:26 10° NNW 19:55:26 89° WSW 20:01:24 10° SSE
Cosmos 2237 Rocket 4.2 19:50:53 10° WSW 19:55:53 31° WNW 20:00:55 10° N
Abrixas 3.3 19:53:11 10° SSW 19:55:55 33° SE 19:57:41 17° E
Nadezhda 4 Rocket 4.4 19:54:06 10° N 20:00:01 41° ENE 20:05:49 10° SE
Cosmos 1346 4.0 19:58:38 10° NNE 20:01:14 27° ENE 20:02:37 19° ESE
Cosmos 1072 Rocket 4.5 19:56:11 10° S 20:02:18 87° W 20:08:26 10° N
COSMO-SKYMED 1 4.0 19:58:28 10° N 20:02:34 41° WNW 20:06:38 10° SW
Meteor 1-21 Rocket 4.2 20:02:15 10° N 20:07:43 56° ENE 20:13:08 10° SSE
ASTEX 1 4.0 20:07:22 10° NNE 20:11:49 33° E 20:16:12 10° SSE
Cosmos 1420 Rocket 4.3 20:06:53 10° N 20:12:01 48° ENE 20:16:34 13° SE
SL-16 R/B 3.3 20:11:08 10° SW 20:16:35 46° WNW 20:22:05 10° NNE
CENTAUR R/B 3.0 20:12:04 10° S 20:17:22 34° ESE 20:23:12 10° NE
Helios 1B rocket 2.3 20:14:00 10° NNE 20:18:08 74° ESE 20:22:14 10° S
Cosmos 1544 3.1 20:15:31 10° S 20:19:11 59° E 20:22:53 10° NNE
METEOR-M 4.2 20:15:10 10° SSE 20:20:31 85° WSW 20:25:55 10° NNW
Cosmos 1766 Rocket 3.8 20:17:34 10° NNW 20:21:56 71° W 20:26:14 10° S
NOSS 3-2 (C) 4.0 20:18:46 10° SW 20:24:48 61° NW 20:31:23 10° NNE
CZ-2D R/B 3.8 20:24:44 30° ESE 20:25:56 39° ENE 20:29:35 10° N
Spot 2 Rocket 3.5 20:22:31 10° SSE 20:27:33 81° WSW 20:32:38 10° NNW
OAO 3 Rocket 3.9 20:23:27 10° WSW 20:27:55 42° S 20:30:04 26° SE
Cosmos 1048 Rocket 4.0 20:25:32 10° S 20:30:45 61° ESE 20:35:55 10° NNE
Cosmos 1269 Rocket 3.9 20:26:02 10° S 20:31:16 72° ESE 20:36:33 10° NNE
FENGYUN 3A 3.6 20:28:54 10° SSE 20:34:12 65° ENE 20:39:33 10° N
Cosmos-2242 3.3 20:30:13 10° SSW 20:34:33 69° W 20:38:56 10° N
Cosmos 2034 Rocket 4.3 20:30:58 10° SSW 20:37:11 70° W 20:43:32 10° N
Envisat 4.4 20:39:21 20° NE 20:39:21 20° NE 20:42:24 10° NNE
H-2A R/B 2.8 20:39:09 44° SE 20:40:04 57° ENE 20:43:53 10° N
Gbstr 26 Del rocket 3.5 20:37:30 10° SSW 20:41:45 47° SE 20:42:57 39° E
Cosmos 1805 4.4 20:38:05 10° SSW 20:41:52 45° W 20:45:40 10° N
Cosmos 1953 3.5 20:39:26 10° SSW 20:43:14 43° W 20:47:04 10° N
Cosmos 2151 3.9 20:39:46 10° NNE 20:42:41 30° NE 20:42:41 30° NE
ISS -3.2 20:41:14 10° SW 20:44:06 60° S 20:44:06 60° S
Cosmos 1174 4.3 20:39:48 10° S 20:44:15 44° SE 20:44:15 44° SE
ALOS 2.2 20:42:16 15° SSE 20:46:09 87° ENE 20:50:50 10° NNW
BREEZE-M DEB (TANK) 3.9 20:36:41 10° W 20:49:55 57° N 20:52:04 33° ENE
Cosmos 1842 Rocket 3.4 20:49:57 10° S 20:54:16 89° W 20:58:39 10° N
Cosmos 1500 Rocket 3.5 20:50:39 10° N 20:55:06 90° N 20:57:01 34° S
Cosmos 158 Rocket 3.7 20:51:06 10° S 20:55:53 60° ESE 21:00:42 10° NNE
USA 215 3.4 20:50:34 10° NE 20:57:06 76° NW 21:03:37 10° WSW
Cosmos 1943 Rocket 3.2 20:53:38 10° N 20:58:07 28° NE 20:58:07 28° NE
Cosmos 2369 Rocket 2.2 20:52:54 10° NNW 20:58:32 61° ENE 20:59:45 49° ESE
Cosmos 1943 3.1 20:53:12 10° S 20:58:46 66° ESE 21:04:21 10° NNE
GPS 2-04 Rocket1 4.0 20:56:09 10° SW 20:58:12 26° SSW 20:58:12 26° SSW
Cosmos 1470 3.1 21:01:27 10° SSW 21:05:18 63° W 21:09:10 10° N
Cosmos 2263 4.4 20:59:58 10° NNW 21:05:36 50° ENE 21:05:59 50° ENE
Cosmos 1733 3.4 21:08:47 69° NW 21:08:47 69° NW 21:12:26 10° N
Cosmos 1627 Rocket 4.4 21:03:22 10° N 21:09:33 67° E 21:11:13 48° SE
SL-8 R/B 3.8 21:06:49 10° WSW 21:11:36 71° NNW 21:12:17 60° NNE
SeaSat 1 3.3 21:15:13 36° S 21:15:13 36° S 21:18:10 10° SSW
ERS-1 Rocket 3.6 21:15:21 41° NNE 21:15:21 41° NNE 21:19:05 10° N
CZ-4B DEB 4.5 21:14:31 31° WSW 21:14:40 32° W 21:17:39 10° NNW
Resurs 01 Rocket 4.0 21:15:42 10° SW 21:19:08 22° W 21:22:37 10° NW
Cosmos 1674 4.1 21:16:54 10° NNW 21:20:31 37° W 21:21:24 32° WSW
Cosmos 1110 Rocket 4.2 21:17:48 10° NNW 21:22:20 56° NNE 21:22:20 56° NNE
Meteor 1-16 Rocket 4.2 21:36:59 67° NNW 21:36:59 67° NNW 21:41:39 10° N
Meteor 1-11 4.2 21:34:29 10° N 21:40:07 81° WNW 21:40:07 81° WNW
ATLAS 5 CENTAUR R/B 4.4 21:37:20 10° W 21:40:48 19° NW 21:44:29 10° N
Cosmos 839 Rocket 4.2 21:35:56 10° NNW 21:43:26 75° WSW 21:44:15 66° SSW
Cosmos 2279 Rocket 4.0 21:46:27 71° N 21:46:27 71° N 21:51:57 10° N
GP-B 4.4 21:41:45 10° NNW 21:45:48 38° W 21:45:48 38° W
Cosmos 1655 Rocket 4.2 21:49:38 10° NNW 21:55:49 67° W 21:55:58 67° WSW
CENTAUR R/B 3.5 22:01:54 10° WSW 22:07:46 45° NW 22:14:23 10° NNE
Cosmos 2369 Rocket 4.4 22:38:14 10° WNW 22:41:35 18° W 22:41:35 18° W
Cosmos 1943 Rocket 4.1 22:37:01 10° NW 22:39:39 26° NW 22:39:39 26° NW
